GW5072 Weather Reports


time (UTC)temp
C
wind
direction
speed
KPH
gust
KPH
rain 1hr
cm
rain 24hr
cm
rain mn
cm
humidity
%
barometer
mb
20260510000018 27 217 0.0 0.0 0.00 0.00 0.00 83 1008.5
20260509235501 27 217 0.0 0.0 0.00 0.00 0.00 83 1008.5
20260509235013 27 217 0.0 0.0 0.00 0.00 0.00 82 1008.4
20260509234527 27 217 0.0 0.0 0.00 0.00 0.00 82 1008.5
20260509234010 27 217 0.0 0.0 0.00 0.00 0.00 82 1008.6
20260509233508 27 217 0.0 0.0 0.00 0.00 0.00 81 1008.6
20260509233010 28 217 0.0 0.0 0.00 0.00 0.00 81 1008.6
20260509232507 28 217 0.0 0.0 0.00 0.00 0.00 81 1008.6
20260509232007 28 217 0.0 0.0 0.00 0.00 0.00 80 1008.7
20260509231528 28 217 0.0 0.0 0.00 0.00 0.00 78 1008.5
20260509231007 28 217 0.0 0.0 0.00 0.00 0.00 78 1008.6
20260509230513 28 217 0.0 0.0 0.00 0.00 0.00 76 1008.3
20260509230024 28 217 0.0 0.0 0.00 0.00 0.00 76 1008.4
20260509225505 29 217 0.0 0.0 0.00 0.00 0.00 75 1008.2
20260509225004 30 217 0.0 0.0 0.00 0.00 0.00 74 1008.2
20260509224525 30 217 0.0 0.0 0.00 0.00 0.00 71 1008.2
20260509224005 30 217 0.0 0.0 0.00 0.00 0.00 69 1008.3
20260509223508 30 217 0.0 0.0 0.00 0.00 0.00 69 1008.2
20260509223023 31 217 0.0 0.0 0.00 0.00 0.00 68 1008.1
20260509222503 31 217 0.0 0.0 0.00 0.00 0.00 66 1008.3
20260509222010 32 217 0.0 0.0 0.00 0.00 0.00 62 1008.1
20260509221522 32 217 0.0 0.0 0.00 0.00 0.00 63 1008.0
20260509221004 32 217 0.0 0.0 0.00 0.00 0.00 62 1008.1
20260509220508 32 217 0.0 1.6 0.00 0.00 0.00 63 1008.0
20260509220019 32 215 0.0 1.6 0.00 0.00 0.00 66 1008.1
20260509215516 32 324 0.0 0.0 0.00 0.00 0.00 67 1008.1
20260509215011 32 324 0.0 0.0 0.00 0.00 0.00 64 1008.2
20260509214515 32 324 0.0 0.0 0.00 0.00 0.00 66 1008.2
20260509214014 32 324 0.0 0.0 0.00 0.00 0.00 64 1008.2
20260509213507 32 325 0.0 1.6 0.00 0.00 0.00 64 1008.2
20260509213028 32 325 0.0 1.6 0.00 0.00 0.00 61 1008.1
20260509212506 33 75 0.0 1.6 0.00 0.00 0.00 60 1008.1
20260509212007 33 114 0.0 1.6 0.00 0.00 0.00 60 1008.2
20260509211527 35 85 0.0 3.2 0.00 0.00 0.00 56 1008.3
20260509211006 35 242 0.0 3.2 0.00 0.00 0.00 60 1008.2
20260509210503 34 1 0.0 3.2 0.00 0.00 0.00 61 1008.4
20260509210029 34 316 0.0 1.6 0.00 0.00 0.00 56 1008.5
20260509205506 34 236 0.0 1.6 0.00 0.00 0.00 60 1008.6
20260509205008 33 235 0.0 1.6 0.00 0.00 0.00 61 1008.6
20260509204524 32 40 0.0 3.2 0.00 0.00 0.00 66 1008.7
20260509204007 33 40 1.6 3.2 0.00 0.00 0.00 60 1008.7
20260509203511 34 226 0.0 1.6 0.00 0.00 0.00 60 1008.8
20260509203025 33 224 0.0 1.6 0.00 0.00 0.00 61 1008.8
20260509202505 33 224 0.0 1.6 0.00 0.00 0.00 63 1009.0
20260509202018 33 115 0.0 3.2 0.00 0.00 0.00 62 1008.9
20260509201523 32 218 0.0 3.2 0.00 0.00 0.00 62 1008.9
20260509201010 32 219 0.0 1.6 0.00 0.00 0.00 66 1009.0
20260509200511 32 239 0.0 4.8 0.00 0.00 0.00 64 1009.0
20260509200020 32 306 1.6 4.8 0.00 0.00 0.00 65 1009.1
20260509195515 32 274 0.0 3.2 0.00 0.00 0.00 63 1009.1
20260509195007 32 280 0.0 1.6 0.00 0.00 0.00 64 1009.2
20260509194529 32 207 0.0 1.6 0.00 0.00 0.00 64 1009.2
20260509194011 32 203 0.0 3.2 0.00 0.00 0.00 64 1009.2
20260509193512 31 177 0.0 4.8 0.00 0.00 0.00 68 1009.3
20260509193028 31 354 1.6 4.8 0.00 0.00 0.00 65 1009.4
20260509192510 31 216 0.0 6.4 0.00 0.00 0.00 67 1009.5
20260509192007 31 238 0.0 6.4 0.00 0.00 0.00 65 1009.5
20260509191528 31 203 1.6 3.2 0.00 0.00 0.00 67 1009.5
20260509191007 31 217 0.0 3.2 0.00 0.00 0.00 66 1009.6
20260509190509 31 207 0.0 3.2 0.00 0.00 0.00 65 1009.6
20260509190025 32 206 0.0 4.8 0.00 0.00 0.00 65 1009.8
20260509185506 32 334 0.0 4.8 0.00 0.00 0.00 65 1009.9
20260509185010 32 322 0.0 3.2 0.00 0.00 0.00 63 1009.9
20260509184537 31 207 0.0 3.2 0.00 0.00 0.00 66 1010.0
20260509184012 31 213 0.0 3.2 0.00 0.00 0.00 70 1010.1
20260509183507 31 60 0.0 4.8 0.00 0.00 0.00 66 1010.2
20260509183024 31 224 1.6 4.8 0.00 0.00 0.00 66 1010.0
20260509182509 31 359 0.0 1.6 0.00 0.00 0.00 65 1010.2
20260509182011 32 247 0.0 1.6 0.00 0.00 0.00 66 1010.3
20260509181504 32 200 0.0 1.6 0.00 0.00 0.00 68 1010.4
20260509181004 31 200 0.0 3.2 0.00 0.00 0.00 70 1010.5
20260509180504 31 221 0.0 3.2 0.00 0.00 0.00 70 1010.7
20260509180003 31 220 0.0 1.6 0.00 0.00 0.00 71 1010.8
20260509175504 30 205 0.0 1.6 0.00 0.00 0.00 70 1010.8
20260509175004 30 205 0.0 3.2 0.00 0.00 0.00 73 1010.9
20260509174517 30 212 0.0 3.2 0.00 0.00 0.00 71 1010.8
20260509174003 30 231 0.0 3.2 0.00 0.00 0.00 72 1010.8
20260509173504 30 250 0.0 0.0 0.00 0.00 0.00 72 1010.9
20260509173015 29 357 0.0 1.6 0.00 0.00 0.00 77 1010.9
20260509172503 28 357 0.0 1.6 0.00 0.00 0.00 74 1010.9
20260509172002 28 328 0.0 1.6 0.00 0.00 0.00 77 1010.9
20260509171511 28 325 0.0 1.6 0.00 0.00 0.00 78 1010.9
20260509171002 28 354 0.0 4.8 0.00 0.00 0.00 76 1010.9
20260509170508 28 342 1.6 4.8 0.00 0.00 0.00 75 1010.8
20260509170009 28 238 0.0 1.6 0.00 0.00 0.00 77 1010.8
20260509165502 28 315 0.0 1.6 0.00 0.00 0.00 79 1010.8
20260509165005 28 315 0.0 1.6 0.00 0.00 0.00 78 1010.8
20260509164507 28 255 0.0 1.6 0.00 0.00 0.00 79 1010.9
20260509164002 27 252 0.0 6.4 0.00 0.00 0.00 81 1010.8
20260509163507 27 251 0.0 6.4 0.00 0.00 0.00 81 1010.6
20260509163004 27 223 0.0 8.0 0.00 0.00 0.00 84 1010.4
20260509162508 26 223 0.0 8.0 0.00 0.00 0.00 83 1010.6
20260509162005 26 139 0.0 1.6 0.00 0.00 0.00 84 1010.7
20260509161506 26 160 0.0 1.6 0.00 0.00 0.00 85 1010.8
20260509161008 26 139 0.0 3.2 0.00 0.00 0.00 85 1011.0
20260509160504 26 214 0.0 3.2 0.00 0.00 0.00 86 1011.1
20260509160003 26 188 0.0 1.6 0.00 0.00 0.00 88 1011.0
20260509155503 25 236 0.0 1.6 0.00 0.00 0.00 88 1011.0
20260509155003 25 237 0.0 0.0 0.00 0.00 0.00 88 1011.2
20260509154519 25 236 0.0 1.6 0.00 0.00 0.00 87 1011.4
20260509154010 25 204 0.0 1.6 0.00 0.00 0.00 88 1011.1
20260509153502 25 225 0.0 0.0 0.00 0.00 0.00 88 1011.1
20260509153016 25 226 0.0 0.0 0.00 0.00 0.00 89 1011.2
20260509152504 25 225 0.0 1.6 0.00 0.00 0.00 89 1011.3
20260509152014 25 226 0.0 1.6 0.00 0.00 0.00 90 1011.1
20260509151514 25 227 0.0 1.6 0.00 0.00 0.00 90 1011.2
20260509151003 25 205 0.0 0.0 0.00 0.00 0.00 90 1011.2
20260509150510 25 204 0.0 0.0 0.00 0.00 0.00 92 1011.1
20260509150010 25 204 0.0 0.0 0.00 0.00 0.00 91 1011.0
20260509145504 24 167 0.0 0.0 0.00 0.00 0.00 92 1010.9
20260509145005 24 167 0.0 0.0 0.00 0.00 0.00 92 1011.0
20260509144510 24 167 0.0 0.0 0.00 0.00 0.00 93 1011.1
20260509144009 24 166 0.0 0.0 0.00 0.00 0.00 93 1011.1
20260509143503 24 166 0.0 1.6 0.00 0.00 0.00 93 1010.9
20260509143006 23 165 0.0 1.6 0.00 0.00 0.00 93 1010.7
20260509142507 23 220 0.0 3.2 0.00 0.00 0.00 94 1010.7
20260509142007 23 219 0.0 3.2 0.00 0.00 0.00 94 1010.4
20260509141503 23 203 0.0 1.6 0.00 0.00 0.00 94 1010.5
20260509141008 23 203 0.0 1.6 0.00 0.00 0.00 94 1010.5
20260509140502 23 235 0.0 0.0 0.00 0.00 0.00 95 1010.4
20260509140022 23 235 0.0 0.0 0.00 0.00 0.00 95 1010.5
20260509135504 23 236 0.0 0.0 0.00 0.00 0.00 95 1010.5
20260509135003 23 235 0.0 0.0 0.00 0.00 0.00 95 1010.9
20260509134522 23 235 0.0 0.0 0.00 0.00 0.00 95 1010.8
20260509134003 23 235 0.0 0.0 0.00 0.00 0.00 95 1011.0
20260509133506 23 235 0.0 0.0 0.00 0.00 0.00 95 1011.0
20260509133019 23 233 0.0 1.6 0.00 0.00 0.00 95 1011.0
20260509132505 23 213 0.0 1.6 0.00 0.00 0.00 96 1011.1
20260509132007 23 153 0.0 0.0 0.00 0.00 0.00 96 1011.0
20260509131514 23 153 0.0 0.0 0.00 0.00 0.00 96 1011.0
20260509131005 23 153 0.0 0.0 0.00 0.00 0.00 96 1011.1
20260509130509 23 152 0.0 0.0 0.00 0.00 0.00 96 1011.1
20260509130014 23 152 0.0 0.0 0.00 0.00 0.00 96 1011.1
20260509125509 22 152 0.0 0.0 0.00 0.00 0.00 96 1010.7
20260509125010 22 152 0.0 0.0 0.00 0.00 0.00 96 1010.8
20260509124511 22 152 0.0 0.0 0.00 0.00 0.00 96 1011.0
20260509124007 22 152 0.0 0.0 0.00 0.00 0.00 96 1010.9
20260509123503 22 152 0.0 0.0 0.00 0.00 0.00 96 1011.0
20260509123005 22 152 0.0 0.0 0.00 0.00 0.00 96 1011.0
20260509122508 22 152 0.0 0.0 0.00 0.00 0.00 96 1010.9
20260509122006 22 152 0.0 0.0 0.00 0.00 0.00 96 1010.8
20260509121527 22 152 0.0 0.0 0.00 0.00 0.00 96 1011.0
20260509121006 22 153 0.0 0.0 0.00 0.00 0.00 96 1010.9
20260509120504 22 153 0.0 0.0 0.00 0.00 0.00 96 1010.8
20260509120023 22 153 0.0 0.0 0.00 0.00 0.00 96 1010.6
20260509115506 22 153 0.0 0.0 0.00 0.00 0.00 96 1010.4
20260509115006 22 153 0.0 0.0 0.00 0.00 0.00 96 1010.3
20260509114525 22 153 0.0 0.0 0.00 0.00 0.00 96 1010.2
20260509114007 22 89 0.0 0.0 0.00 0.00 0.00 96 1010.6
20260509113507 22 89 0.0 0.0 0.00 0.00 0.00 96 1010.5
20260509113020 22 89 0.0 0.0 0.00 0.00 0.00 96 1010.6
20260509112503 22 89 0.0 0.0 0.00 0.00 0.00 96 1010.5
20260509112007 22 89 0.0 0.0 0.00 0.00 0.00 96 1010.6
20260509111526 22 89 0.0 0.0 0.00 0.00 0.00 96 1010.5
20260509111014 22 89 0.0 0.0 0.00 0.00 0.00 96 1010.5
20260509110507 22 89 0.0 0.0 0.00 0.00 0.00 96 1010.7
20260509110014 22 89 0.0 0.0 0.00 0.00 0.00 96 1010.7
20260509105507 22 89 0.0 0.0 0.00 0.00 0.00 96 1010.8
20260509105007 22 89 0.0 0.0 0.00 0.00 0.00 96 1010.7
20260509104523 22 89 0.0 0.0 0.00 0.00 0.00 96 1010.6
20260509104008 22 89 0.0 0.0 0.00 0.00 0.00 96 1010.5
20260509103503 22 89 0.0 0.0 0.00 0.00 0.00 96 1010.6
20260509103029 22 89 0.0 0.0 0.00 0.00 0.00 96 1010.8
20260509102510 22 89 0.0 0.0 0.00 0.00 0.00 95 1010.6
20260509102004 22 89 0.0 0.0 0.00 0.00 0.00 95 1010.4
20260509101530 22 89 0.0 0.0 0.00 0.00 0.00 96 1010.2
20260509101007 22 89 0.0 0.0 0.00 0.00 0.00 96 1010.2
20260509100504 22 89 0.0 0.0 0.00 0.00 0.00 96 1010.0
20260509100031 22 89 0.0 0.0 0.00 0.00 0.00 95 1010.0
20260509095508 22 89 0.0 0.0 0.00 0.00 0.00 96 1010.1
20260509095007 22 89 0.0 0.0 0.00 0.00 0.00 96 1010.0
20260509094527 22 89 0.0 0.0 0.00 0.00 0.00 96 1010.0
20260509094005 22 89 0.0 0.0 0.00 0.00 0.00 95 1010.0
20260509093507 22 89 0.0 0.0 0.00 0.00 0.00 95 1010.0
20260509093022 22 89 0.0 0.0 0.00 0.00 0.00 95 1010.1
20260509092503 22 89 0.0 0.0 0.00 0.00 0.00 95 1010.3
20260509092007 22 89 0.0 0.0 0.00 0.00 0.00 95 1010.3
20260509091517 22 89 0.0 0.0 0.00 0.00 0.00 95 1010.2
20260509091008 22 89 0.0 0.0 0.00 0.00 0.00 95 1010.1
20260509090509 22 89 0.0 0.0 0.00 0.00 0.00 95 1010.2
20260509090016 22 89 0.0 0.0 0.00 0.00 0.00 95 1010.2
20260509085508 22 89 0.0 0.0 0.00 0.00 0.00 95 1010.3
20260509085009 22 89 0.0 0.0 0.00 0.00 0.00 95 1010.4
20260509084528 22 89 0.0 0.0 0.00 0.00 0.00 95 1010.5
20260509084008 22 89 0.0 0.0 0.00 0.00 0.00 95 1010.6
20260509083507 22 89 0.0 0.0 0.00 0.00 0.00 95 1010.6
20260509083038 22 89 0.0 0.0 0.00 0.00 0.00 95 1010.5
20260509082508 22 89 0.0 0.0 0.00 0.00 0.00 95 1010.5
20260509082007 22 89 0.0 0.0 0.00 0.00 0.00 95 1010.7
20260509081528 22 89 0.0 0.0 0.00 0.00 0.00 95 1010.7
20260509081007 22 89 0.0 0.0 0.00 0.00 0.00 95 1010.6
20260509080507 22 89 0.0 0.0 0.00 0.00 0.00 95 1010.4
20260509080025 22 89 0.0 0.0 0.00 0.00 0.00 95 1010.3
20260509075506 22 89 0.0 0.0 0.00 0.00 0.00 95 1010.2
20260509075010 22 89 0.0 0.0 0.00 0.00 0.00 95 1010.3
20260509074522 22 89 0.0 0.0 0.00 0.00 0.00 95 1010.5
20260509074009 22 89 0.0 0.0 0.00 0.00 0.00 95 1010.4
20260509073508 22 89 0.0 0.0 0.00 0.00 0.00 95 1010.2
20260509073022 22 87 0.0 0.0 0.00 0.00 0.00 95 1010.1
20260509072508 22 87 0.0 0.0 0.00 0.00 0.00 95 1010.1
20260509072010 22 87 0.0 0.0 0.00 0.00 0.00 95 1010.3
20260509071519 22 87 0.0 0.0 0.00 0.00 0.00 95 1010.4
20260509071008 22 87 0.0 0.0 0.00 0.00 0.00 95 1010.2
20260509070509 22 87 0.0 0.0 0.00 0.00 0.00 95 1010.2
20260509070027 22 87 0.0 0.0 0.00 0.00 0.00 95 1010.2
20260509065511 22 87 0.0 0.0 0.00 0.00 0.00 95 1010.2
20260509065007 22 87 0.0 0.0 0.00 0.00 0.00 95 1010.2
20260509064530 22 87 0.0 0.0 0.00 0.00 0.00 95 1010.4
20260509064008 22 87 0.0 0.0 0.00 0.00 0.00 95 1010.4
20260509063505 22 87 0.0 1.6 0.00 0.00 0.00 95 1010.4
20260509063034 22 87 0.0 1.6 0.00 0.00 0.00 95 1010.3
20260509062512 22 87 0.0 0.0 0.00 0.00 0.00 95 1010.3
20260509062010 22 87 0.0 0.0 0.00 0.00 0.00 95 1010.3
20260509061512 22 88 0.0 1.6 0.00 0.00 0.00 95 1010.5
20260509061004 22 87 0.0 1.6 0.00 0.00 0.00 95 1010.7
20260509060503 22 87 0.0 1.6 0.00 0.00 0.00 95 1010.7
20260509060005 22 87 0.0 1.6 0.00 0.00 0.00 95 1010.7
20260509055501 22 87 0.0 1.6 0.00 0.00 0.00 95 1010.7
20260509055001 22 87 0.0 1.6 0.00 0.00 0.00 95 1010.7
20260509054503 22 87 0.0 1.6 0.00 0.00 0.00 95 1010.7
20260509054002 22 87 0.0 1.6 0.00 0.00 0.00 95 1010.9
20260509053503 22 87 0.0 1.6 0.00 0.00 0.00 95 1010.8
20260509053021 22 87 0.0 0.0 0.00 0.00 0.00 95 1010.8
20260509052503 22 87 0.0 0.0 0.00 0.00 0.00 95 1010.8
20260509052003 22 87 0.0 0.0 0.00 0.00 0.00 95 1010.9
20260509051508 22 87 0.0 0.0 0.00 0.00 0.00 95 1010.8
20260509051004 22 87 0.0 1.6 0.00 0.00 0.00 95 1010.9
20260509050506 22 87 0.0 1.6 0.00 0.00 0.00 95 1010.8
20260509050010 22 87 0.0 0.0 0.00 0.00 0.00 95 1010.7
20260509045504 22 87 0.0 1.6 0.00 0.00 0.00 95 1010.6
20260509045002 22 88 0.0 1.6 0.00 0.00 0.00 95 1010.7
20260509044508 22 87 0.0 1.6 0.00 0.00 0.00 95 1010.9
20260509044003 22 87 0.0 1.6 0.00 0.00 0.00 95 1011.0
20260509043506 22 87 0.0 0.0 0.00 0.00 0.00 95 1010.9
20260509043009 22 87 0.0 0.0 0.00 0.00 0.00 95 1010.8
20260509042505 22 87 0.0 0.0 0.00 0.00 0.00 95 1010.8
20260509042006 22 87 0.0 1.6 0.00 0.00 0.00 94 1010.9
20260509041507 22 87 0.0 1.6 0.00 0.00 0.00 94 1010.9
20260509041006 22 87 0.0 1.6 0.00 0.00 0.00 94 1010.9
20260509040503 22 87 0.0 0.0 0.00 0.00 0.00 94 1010.9
20260509040007 22 87 0.0 0.0 0.00 0.00 0.00 94 1010.8
20260509035505 22 87 0.0 0.0 0.00 0.00 0.00 94 1010.7
20260509035006 22 87 0.0 0.0 0.00 0.00 0.00 94 1010.6
20260509034511 22 87 0.0 0.0 0.00 0.00 0.00 94 1010.5
20260509034005 22 87 0.0 1.6 0.00 0.00 0.00 94 1010.5
20260509033506 22 88 0.0 1.6 0.00 0.00 0.00 94 1010.5
20260509033012 22 86 0.0 0.0 0.00 0.00 0.00 94 1010.5
20260509032506 22 88 0.0 0.0 0.00 0.00 0.00 94 1010.5
20260509032004 22 88 0.0 1.6 0.00 0.00 0.00 94 1010.6
20260509031516 22 88 0.0 1.6 0.00 0.00 0.00 94 1010.6
20260509031007 22 88 0.0 1.6 0.00 0.00 0.00 94 1010.5
20260509030504 22 87 0.0 1.6 0.00 0.00 0.00 94 1010.3
20260509030012 22 88 0.0 1.6 0.00 0.00 0.00 94 1010.3
20260509025503 22 88 0.0 1.6 0.00 0.00 0.00 94 1010.4
20260509025003 22 100 0.0 1.6 0.00 0.00 0.00 94 1010.2
20260509024512 22 101 0.0 1.6 0.00 0.00 0.00 94 1010.1
20260509024009 22 101 0.0 1.6 0.00 0.00 0.00 93 1010.0
20260509023507 22 87 0.0 1.6 0.00 0.00 0.00 93 1009.9
20260509023014 22 72 0.0 0.0 0.00 0.00 0.00 93 1010.0
20260509022505 22 72 0.0 0.0 0.00 0.00 0.00 93 1010.2
20260509022005 22 72 0.0 0.0 0.00 0.00 0.00 93 1010.1
20260509021511 22 72 0.0 0.0 0.00 0.00 0.00 93 1010.0
20260509021005 22 72 0.0 0.0 0.00 0.00 0.00 93 1010.0
20260509020509 22 72 0.0 0.0 0.00 0.00 0.00 93 1009.9
20260509020016 22 72 0.0 1.6 0.00 0.00 0.00 93 1009.9
20260509015506 22 71 0.0 1.6 0.00 0.00 0.00 92 1010.0
20260509015008 22 71 0.0 1.6 0.00 0.00 0.00 92 1009.9
20260509014520 22 73 0.0 0.0 0.00 0.00 0.00 92 1009.9
20260509014008 22 77 0.0 0.0 0.00 0.00 0.00 92 1009.9
20260509013506 22 77 0.0 0.0 0.00 0.00 0.00 91 1010.0
20260509013016 22 94 0.0 0.0 0.00 0.00 0.00 91 1010.1
20260509012505 22 94 0.0 0.0 0.00 0.00 0.00 91 1010.0
20260509012007 23 94 0.0 0.0 0.00 0.00 0.00 91 1009.9
20260509011518 23 94 0.0 0.0 0.00 0.00 0.00 90 1009.7
20260509011003 23 95 0.0 0.0 0.00 0.00 0.00 90 1009.7
20260509010503 23 75 0.0 0.0 0.00 0.00 0.00 90 1009.7
20260509010024 23 75 0.0 0.0 0.00 0.00 0.00 90 1009.6
20260509005505 23 75 0.0 0.0 0.00 0.00 0.00 90 1009.6
20260509005006 23 85 0.0 0.0 0.00 0.00 0.00 90 1009.5
20260509004531 23 80 0.0 0.0 0.00 0.00 0.00 89 1009.3
20260509004006 23 84 0.0 0.0 0.00 0.00 0.00 89 1009.3
20260509003507 23 81 0.0 0.0 0.00 0.00 0.00 89 1009.3
20260509003017 23 87 0.0 0.0 0.00 0.00 0.00 89 1009.2
20260509002503 23 72 0.0 1.6 0.00 0.00 0.00 88 1009.4
20260509002006 23 78 0.0 1.6 0.00 0.00 0.00 88 1009.4
20260509001518 23 76 0.0 1.6 0.00 0.00 0.00 88 1009.6
20260509001007 23 83 0.0 1.6 0.00 0.00 0.00 88 1009.8
20260509000509 23 83 0.0 1.6 0.00 0.00 0.00 88 1009.7